SPACEBEENZ-21 (52405 NORAD) Tracking and Keplerian Element Data

This shows tracking and keplerian element data for the satellite.

Feedback or suggestion? Click here.




ElementValue
Catalog52405
NameSPACEBEENZ-21
Epoch Orbit812
Epoch Day166.95513732
Epoch Year2022
RAAN251.8884
Inclination97.45
Eccentricity0.0010625
Argument of Perigee173.4995
Mean Anonmoly186.6376
Mean Motion15.13630575
Decay Rate0.00013382
L11 52405U 22047M 22166.95513732 .00013382 00000+0 74661-3 0 9996
L22 52405 97.4500 251.8884 0010625 173.4995 186.6376 15.13630575 8125

Live tracking and technical data element details for SPACEBEENZ-21 (NORAD 52405). SPACEBEENZ-21 can be tracked NOW for your location showing map with azimuth and elevation plus other details from your city location.

Track the satellite on the map from your city or location and see movement details for azimuth, elevation, latitude, longitude, range, height, and movement on the map or in text.







IsCatalogInMostPopularTable: catalog: 52405, numindb: 1
Update: records affected: 1



GetName: 52405 SPACEBEENZ-21

Hit Count: updated at: Sat, 25 Jun 2022 05:03:41 GMT